Location: Bailleul
(50.3375°N, 2.8513°E)
Time: 05:50:42
(UTC+00:00)

Meteor 2-3 Rocket - Pass Details

Date: 19 April 2021
Orbit: 841 x 886 km, 81.2° (Epoch: 09 May)

Event Time Altitude Azimuth Distance (km) Brightness Sun altitude
Rises 20:28:48 0° 349° (NNW) 3,495 7.8 -14.6°
Reaches altitude 10° 20:31:18 10° 352° (N) 2,547 6.9 -14.9°
Maximum altitude 20:37:04 66° 75° (ENE) 950 3.8 -15.6°
Enters shadow 20:40:44 23° 153° (SSE) 1,773 4.8 -16.0°
